EWG6PY LOWW-EDDS

Flight info

Callsign EWG6PY
Flight time 1h 8m
Altitude 30000
Route LUGEM DCT KIRDI DCT EBEDA L173 MAH/N0365F240 L173 DODIL T127 TEKSI TEKSI1W
Aircraft A320/M-SDE3FGHIRWY/LB1

Departure

Time 2026-04-20 18:18
Airport Vienna International Airport (LOWW)

Arrival

Time 2026-04-20 19:27
Airport Stuttgart Airport (EDDS)
Time Latitude Longitude Altitude Speed Heading
2026-04-20 17:42 48.11938 16.55802 623 ft 0 kts 296°
2026-04-20 18:06 48.11935 16.55808 609 ft 3 kts 295°
2026-04-20 18:06 48.11925 16.55843 625 ft 4 kts 289°
2026-04-20 18:07 48.11919 16.55881 626 ft 4 kts 273°
2026-04-20 18:07 48.11922 16.55917 621 ft 4 kts 226°
2026-04-20 18:07 48.11931 16.55928 616 ft 1 kts 206°
2026-04-20 18:07 48.11932 16.55928 615 ft 0 kts 206°
2026-04-20 18:13 48.11871 16.55884 620 ft 13 kts 206°
2026-04-20 18:13 48.11807 16.55838 622 ft 9 kts 206°
2026-04-20 18:13 48.11752 16.55798 618 ft 8 kts 206°
2026-04-20 18:14 48.11718 16.55774 619 ft 6 kts 206°
2026-04-20 18:14 48.11716 16.55772 622 ft 0 kts 206°
2026-04-20 18:14 48.11696 16.55784 613 ft 9 kts 134°
2026-04-20 18:14 48.11666 16.55875 618 ft 11 kts 116°
2026-04-20 18:15 48.11604 16.56067 610 ft 25 kts 116°
2026-04-20 18:15 48.11551 16.56228 617 ft 27 kts 116°
2026-04-20 18:15 48.11467 16.56486 616 ft 28 kts 117°
2026-04-20 18:15 48.11392 16.56711 619 ft 13 kts 116°
2026-04-20 18:16 48.11330 16.56775 621 ft 11 kts 192°
2026-04-20 18:16 48.11299 16.56686 622 ft 12 kts 268°
2026-04-20 18:16 48.11291 16.56508 609 ft 21 kts 269°
2026-04-20 18:16 48.11308 16.56324 614 ft 7 kts 295°
2026-04-20 18:17 48.11309 16.56322 614 ft 0 kts 295°
2026-04-20 18:17 48.11310 16.56319 613 ft 3 kts 295°
2026-04-20 18:17 48.11393 16.56065 622 ft 64 kts 296°
2026-04-20 18:18 48.11693 16.55140 622 ft 130 kts 296°
2026-04-20 18:18 48.12166 16.53716 820 ft 162 kts 295°
2026-04-20 18:18 48.12334 16.52132 1769 ft 153 kts 268°
2026-04-20 18:18 48.12116 16.50478 2300 ft 173 kts 260°
2026-04-20 18:19 48.11824 16.48628 2717 ft 193 kts 262°
2026-04-20 18:19 48.11522 16.46545 3100 ft 216 kts 259°
2026-04-20 18:19 48.11129 16.44306 3583 ft 235 kts 258°
2026-04-20 18:19 48.10689 16.41901 4323 ft 248 kts 257°
2026-04-20 18:20 48.10222 16.39332 5087 ft 260 kts 257°
2026-04-20 18:20 48.09843 16.36674 6099 ft 261 kts 269°
2026-04-20 18:20 48.09849 16.33952 7111 ft 262 kts 273°
2026-04-20 18:20 48.09982 16.31234 8167 ft 261 kts 277°
2026-04-20 18:21 48.10189 16.28538 9222 ft 261 kts 278°
2026-04-20 18:21 48.10418 16.25841 10237 ft 263 kts 278°
2026-04-20 18:21 48.10664 16.23015 10651 ft 285 kts 278°
2026-04-20 18:21 48.10925 16.20001 11258 ft 297 kts 278°
2026-04-20 18:22 48.11184 16.16948 12111 ft 302 kts 278°
2026-04-20 18:22 48.11442 16.13812 12968 ft 306 kts 278°
2026-04-20 18:22 48.11698 16.10631 13825 ft 309 kts 277°
2026-04-20 18:22 48.11954 16.07409 14583 ft 312 kts 277°
2026-04-20 18:23 48.12212 16.04167 15329 ft 315 kts 277°
2026-04-20 18:23 48.12475 16.00892 16081 ft 318 kts 277°
2026-04-20 18:23 48.12739 15.97589 16822 ft 321 kts 277°
2026-04-20 18:23 48.13000 15.94253 17592 ft 324 kts 277°
2026-04-20 18:24 48.13202 15.90877 18345 ft 327 kts 275°
2026-04-20 18:24 48.13347 15.87469 18999 ft 329 kts 274°
2026-04-20 18:24 48.13462 15.84042 19678 ft 331 kts 274°
2026-04-20 18:24 48.13565 15.80633 20353 ft 332 kts 274°
2026-04-20 18:25 48.13670 15.77177 21021 ft 333 kts 274°
2026-04-20 18:25 48.13785 15.73701 21699 ft 335 kts 274°
2026-04-20 18:25 48.13907 15.70215 22349 ft 336 kts 274°
2026-04-20 18:25 48.14031 15.66717 22960 ft 338 kts 274°
2026-04-20 18:26 48.14157 15.63191 23604 ft 339 kts 274°
2026-04-20 18:26 48.14284 15.59651 24117 ft 340 kts 274°
2026-04-20 18:26 48.14412 15.56109 24634 ft 341 kts 274°
2026-04-20 18:26 48.14540 15.52555 25156 ft 342 kts 275°
2026-04-20 18:27 48.14666 15.48986 25659 ft 343 kts 275°
2026-04-20 18:27 48.14788 15.45456 26143 ft 345 kts 275°
2026-04-20 18:27 48.14911 15.41859 26631 ft 346 kts 275°
2026-04-20 18:27 48.15030 15.38257 27113 ft 347 kts 275°
2026-04-20 18:28 48.15148 15.34634 27593 ft 349 kts 275°
2026-04-20 18:28 48.15266 15.31004 28072 ft 350 kts 275°
2026-04-20 18:28 48.15385 15.27358 28538 ft 351 kts 276°
2026-04-20 18:28 48.15503 15.23700 29003 ft 353 kts 276°
2026-04-20 18:29 48.15623 15.20022 29446 ft 354 kts 276°
2026-04-20 18:29 48.15742 15.16323 29899 ft 356 kts 276°
2026-04-20 18:29 48.15859 15.12625 30029 ft 351 kts 276°
2026-04-20 18:29 48.15963 15.09110 30021 ft 333 kts 276°
2026-04-20 18:30 48.16062 15.05715 30036 ft 322 kts 276°
2026-04-20 18:30 48.16162 15.02391 30040 ft 318 kts 276°
2026-04-20 18:30 48.16367 14.95812 30043 ft 316 kts 276°
2026-04-20 18:31 48.16569 14.89241 30037 ft 316 kts 276°
2026-04-20 18:31 48.16763 14.82664 30037 ft 316 kts 276°
2026-04-20 18:32 48.16949 14.76095 30033 ft 316 kts 276°
2026-04-20 18:32 48.17127 14.69526 30030 ft 315 kts 276°
2026-04-20 18:33 48.17306 14.62953 30033 ft 316 kts 276°
2026-04-20 18:33 48.17480 14.56377 30030 ft 316 kts 276°
2026-04-20 18:34 48.17655 14.49843 30033 ft 316 kts 276°
2026-04-20 18:34 48.17828 14.43215 30035 ft 316 kts 276°
2026-04-20 18:35 48.17984 14.36673 30018 ft 316 kts 276°
2026-04-20 18:35 48.18142 14.30080 30025 ft 317 kts 275°
2026-04-20 18:36 48.18301 14.23471 30013 ft 317 kts 275°
2026-04-20 18:36 48.18458 14.16871 30030 ft 317 kts 275°
2026-04-20 18:37 48.18606 14.10274 30029 ft 316 kts 275°
2026-04-20 18:37 48.18751 14.03692 30027 ft 316 kts 275°
2026-04-20 18:38 48.18895 13.97101 30035 ft 316 kts 275°
2026-04-20 18:38 48.19037 13.90515 30034 ft 316 kts 275°
2026-04-20 18:39 48.19170 13.84024 30038 ft 316 kts 275°
2026-04-20 18:39 48.19297 13.77472 30036 ft 316 kts 275°
2026-04-20 18:40 48.19423 13.70887 30037 ft 316 kts 275°
2026-04-20 18:40 48.19547 13.64298 30037 ft 316 kts 275°
2026-04-20 18:41 48.19669 13.57690 30038 ft 316 kts 275°
2026-04-20 18:41 48.19786 13.51100 30039 ft 316 kts 275°
2026-04-20 18:42 48.19896 13.44553 30046 ft 316 kts 275°
2026-04-20 18:42 48.20006 13.37957 30047 ft 316 kts 275°
2026-04-20 18:43 48.20109 13.31363 30033 ft 316 kts 275°
2026-04-20 18:43 48.20204 13.24766 30037 ft 316 kts 275°
2026-04-20 18:44 48.20298 13.18163 30044 ft 317 kts 275°
2026-04-20 18:44 48.20393 13.11603 30045 ft 317 kts 275°
2026-04-20 18:45 48.20482 13.05001 30046 ft 317 kts 275°
2026-04-20 18:45 48.20567 12.98398 30048 ft 317 kts 275°
2026-04-20 18:46 48.20653 12.91773 30052 ft 317 kts 275°
2026-04-20 18:46 48.20734 12.85170 30047 ft 317 kts 275°
2026-04-20 18:47 48.20854 12.81878 29933 ft 314 kts 283°
2026-04-20 18:47 48.21402 12.78757 29647 ft 307 kts 287°
2026-04-20 18:47 48.21984 12.75684 29358 ft 306 kts 287°
2026-04-20 18:47 48.22559 12.72661 29085 ft 306 kts 287°
2026-04-20 18:48 48.23143 12.69579 28801 ft 307 kts 287°
2026-04-20 18:48 48.23724 12.66483 28525 ft 312 kts 286°
2026-04-20 18:48 48.24331 12.63237 28252 ft 335 kts 286°
2026-04-20 18:48 48.24976 12.59786 28058 ft 349 kts 286°
2026-04-20 18:49 48.26295 12.52682 28076 ft 356 kts 286°
2026-04-20 18:49 48.27626 12.45518 28077 ft 356 kts 286°
2026-04-20 18:50 48.28954 12.38341 28077 ft 357 kts 286°
2026-04-20 18:50 48.30274 12.31161 28074 ft 357 kts 286°
2026-04-20 18:51 48.31596 12.23986 28074 ft 357 kts 286°
2026-04-20 18:51 48.32907 12.16823 28075 ft 357 kts 286°
2026-04-20 18:52 48.34214 12.09635 28062 ft 356 kts 286°
2026-04-20 18:52 48.35518 12.02445 28067 ft 356 kts 286°
2026-04-20 18:53 48.36821 11.95239 28066 ft 356 kts 286°
2026-04-20 18:53 48.38108 11.88099 28075 ft 356 kts 286°
2026-04-20 18:54 48.39402 11.80890 28068 ft 356 kts 286°
2026-04-20 18:54 48.40684 11.73689 28068 ft 356 kts 285°
2026-04-20 18:55 48.41325 11.70079 27837 ft 357 kts 285°
2026-04-20 18:55 48.41969 11.66460 27572 ft 358 kts 285°
2026-04-20 18:55 48.42613 11.62836 27308 ft 359 kts 285°
2026-04-20 18:55 48.43259 11.59196 27046 ft 360 kts 285°
2026-04-20 18:56 48.43895 11.55595 26789 ft 361 kts 285°
2026-04-20 18:56 48.44541 11.51939 26533 ft 362 kts 285°
2026-04-20 18:56 48.45189 11.48263 26291 ft 363 kts 285°
2026-04-20 18:56 48.45840 11.44563 26040 ft 365 kts 285°
2026-04-20 18:57 48.46490 11.40861 25785 ft 366 kts 285°
2026-04-20 18:57 48.47138 11.37153 25537 ft 367 kts 285°
2026-04-20 18:57 48.47785 11.33431 25284 ft 368 kts 285°
2026-04-20 18:57 48.48433 11.29699 25031 ft 369 kts 285°
2026-04-20 18:58 48.49080 11.25952 24798 ft 370 kts 285°
2026-04-20 18:58 48.49729 11.22184 24546 ft 372 kts 285°
2026-04-20 18:58 48.50382 11.18396 24312 ft 373 kts 285°
2026-04-20 18:58 48.51029 11.14652 24076 ft 374 kts 285°
2026-04-20 18:59 48.51688 11.10848 23849 ft 375 kts 285°
2026-04-20 18:59 48.52347 11.07032 23602 ft 377 kts 285°
2026-04-20 18:59 48.53008 11.03193 23312 ft 378 kts 285°
2026-04-20 18:59 48.53667 10.99342 23038 ft 380 kts 285°
2026-04-20 19:00 48.54327 10.95475 22694 ft 382 kts 285°
2026-04-20 19:00 48.54991 10.91575 22201 ft 385 kts 285°
2026-04-20 19:00 48.55658 10.87651 21693 ft 388 kts 285°
2026-04-20 19:00 48.56327 10.83702 21224 ft 390 kts 285°
2026-04-20 19:01 48.57000 10.79712 20734 ft 393 kts 285°
2026-04-20 19:01 48.57677 10.75696 20267 ft 398 kts 285°
2026-04-20 19:01 48.58365 10.71615 20081 ft 403 kts 285°
2026-04-20 19:01 48.59059 10.67492 19631 ft 407 kts 285°
2026-04-20 19:02 48.59758 10.63320 19088 ft 411 kts 284°
2026-04-20 19:02 48.60463 10.59111 18554 ft 415 kts 284°
2026-04-20 19:02 48.61170 10.54870 17963 ft 414 kts 284°
2026-04-20 19:02 48.61851 10.50763 17504 ft 387 kts 284°
2026-04-20 19:03 48.62478 10.46971 17198 ft 356 kts 284°
2026-04-20 19:03 48.63051 10.43495 16916 ft 329 kts 284°
2026-04-20 19:03 48.63604 10.40150 15506 ft 336 kts 284°
2026-04-20 19:03 48.64177 10.36679 14001 ft 345 kts 284°
2026-04-20 19:04 48.64765 10.33112 12440 ft 351 kts 284°
2026-04-20 19:04 48.65350 10.29546 11607 ft 348 kts 284°
2026-04-20 19:04 48.65731 10.27215 11377 ft 340 kts 284°
2026-04-20 19:04 48.66284 10.23823 11207 ft 324 kts 283°
2026-04-20 19:05 48.66812 10.20583 11114 ft 308 kts 284°
2026-04-20 19:05 48.67469 10.16574 11129 ft 285 kts 283°
2026-04-20 19:05 48.67783 10.14636 11129 ft 277 kts 283°
2026-04-20 19:05 48.68229 10.11869 11115 ft 273 kts 283°
2026-04-20 19:06 48.68679 10.09081 11113 ft 272 kts 283°
2026-04-20 19:06 48.69128 10.06295 11113 ft 272 kts 283°
2026-04-20 19:06 48.69511 10.03486 11113 ft 272 kts 281°
2026-04-20 19:06 48.69849 10.00661 11112 ft 273 kts 280°
2026-04-20 19:07 48.70173 9.97828 11115 ft 273 kts 280°
2026-04-20 19:07 48.70496 9.94993 11107 ft 273 kts 280°
2026-04-20 19:07 48.70821 9.92167 11110 ft 273 kts 280°
2026-04-20 19:07 48.71152 9.89340 10773 ft 271 kts 280°
2026-04-20 19:08 48.71490 9.86467 9695 ft 283 kts 280°
2026-04-20 19:08 48.72159 9.80793 8416 ft 269 kts 281°
2026-04-20 19:08 48.72485 9.78025 7814 ft 264 kts 281°
2026-04-20 19:09 48.72801 9.75344 7373 ft 253 kts 281°
2026-04-20 19:09 48.73105 9.72779 6965 ft 242 kts 282°
2026-04-20 19:09 48.73397 9.70296 6585 ft 240 kts 282°
2026-04-20 19:09 48.73692 9.67776 6089 ft 244 kts 282°
2026-04-20 19:10 48.73986 9.65247 5806 ft 238 kts 282°
2026-04-20 19:10 48.74266 9.62830 5753 ft 231 kts 282°
2026-04-20 19:10 48.74547 9.60427 5667 ft 232 kts 282°
2026-04-20 19:10 48.74825 9.58046 5560 ft 233 kts 282°
2026-04-20 19:11 48.75071 9.55674 5424 ft 223 kts 274°
2026-04-20 19:11 48.74845 9.53352 5160 ft 224 kts 256°
2026-04-20 19:11 48.74416 9.51077 4868 ft 226 kts 256°
2026-04-20 19:11 48.73986 9.48801 4546 ft 222 kts 256°
2026-04-20 19:12 48.73572 9.46590 4246 ft 215 kts 256°
2026-04-20 19:12 48.73171 9.44443 3955 ft 209 kts 256°
2026-04-20 19:12 48.72779 9.42349 3676 ft 204 kts 256°
2026-04-20 19:12 48.72395 9.40300 3409 ft 200 kts 256°
2026-04-20 19:13 48.72019 9.38293 3144 ft 195 kts 257°
2026-04-20 19:13 48.71659 9.36377 2887 ft 182 kts 257°
2026-04-20 19:13 48.71327 9.34614 2676 ft 168 kts 257°
2026-04-20 19:13 48.71019 9.32982 2409 ft 155 kts 257°
2026-04-20 19:14 48.70723 9.31441 2154 ft 149 kts 255°
2026-04-20 19:14 48.70434 9.29968 1962 ft 145 kts 256°
2026-04-20 19:14 48.70155 9.28506 1806 ft 144 kts 258°
2026-04-20 19:14 48.69896 9.27058 1613 ft 142 kts 258°
2026-04-20 19:15 48.69625 9.25614 1418 ft 143 kts 257°
2026-04-20 19:15 48.69358 9.24171 1216 ft 142 kts 257°
2026-04-20 19:15 48.69102 9.22792 1463 ft 141 kts 257°
2026-04-20 19:15 48.68825 9.21329 2331 ft 148 kts 257°
2026-04-20 19:16 48.68521 9.19721 3111 ft 170 kts 257°
2026-04-20 19:16 48.68179 9.17915 3605 ft 188 kts 257°
2026-04-20 19:16 48.67800 9.15924 3929 ft 208 kts 256°
2026-04-20 19:16 48.67430 9.13751 4418 ft 216 kts 266°
2026-04-20 19:17 48.67536 9.11488 4922 ft 218 kts 281°
2026-04-20 19:17 48.67809 9.09273 4998 ft 216 kts 284°
2026-04-20 19:17 48.68104 9.07048 5008 ft 214 kts 284°
2026-04-20 19:17 48.68394 9.04894 5008 ft 206 kts 284°
2026-04-20 19:18 48.68679 9.02772 5008 ft 205 kts 284°
2026-04-20 19:18 48.68959 9.00663 5008 ft 204 kts 284°
2026-04-20 19:18 48.69242 8.98555 5010 ft 204 kts 284°
2026-04-20 19:18 48.69526 8.96446 5010 ft 205 kts 284°
2026-04-20 19:19 48.69807 8.94334 5014 ft 205 kts 284°
2026-04-20 19:19 48.70088 8.92220 5010 ft 205 kts 284°
2026-04-20 19:19 48.70371 8.90110 5017 ft 204 kts 284°
2026-04-20 19:19 48.70579 8.87983 5014 ft 206 kts 269°
2026-04-20 19:20 48.70077 8.85965 5013 ft 210 kts 231°
2026-04-20 19:20 48.68870 8.84765 5017 ft 211 kts 194°
2026-04-20 19:20 48.67419 8.84777 5017 ft 209 kts 168°
2026-04-20 19:20 48.66001 8.85260 5013 ft 209 kts 164°
2026-04-20 19:21 48.64600 8.85847 5012 ft 208 kts 155°
2026-04-20 19:21 48.63497 8.87143 5011 ft 203 kts 124°
2026-04-20 19:21 48.62935 8.89055 5015 ft 199 kts 97°
2026-04-20 19:21 48.63021 8.91094 5009 ft 189 kts 72°
2026-04-20 19:22 48.63375 8.92926 4965 ft 178 kts 71°
2026-04-20 19:22 48.63722 8.94701 4785 ft 175 kts 71°
2026-04-20 19:22 48.64062 8.96458 4573 ft 173 kts 71°
2026-04-20 19:22 48.64399 8.98205 4338 ft 172 kts 71°
2026-04-20 19:23 48.64733 8.99937 4088 ft 171 kts 71°
2026-04-20 19:23 48.65064 9.01658 3873 ft 170 kts 71°
2026-04-20 19:23 48.65391 9.03362 3638 ft 169 kts 71°
2026-04-20 19:23 48.65717 9.05062 3419 ft 167 kts 71°
2026-04-20 19:24 48.66024 9.06672 3218 ft 149 kts 70°
2026-04-20 19:24 48.66301 9.08120 2996 ft 139 kts 70°
2026-04-20 19:24 48.66567 9.09504 2807 ft 135 kts 69°
2026-04-20 19:24 48.66833 9.10868 2591 ft 135 kts 70°
2026-04-20 19:25 48.67107 9.12234 2422 ft 136 kts 71°
2026-04-20 19:25 48.67344 9.13620 2271 ft 138 kts 73°
2026-04-20 19:25 48.67609 9.15001 2069 ft 135 kts 70°
2026-04-20 19:25 48.67879 9.16378 1875 ft 137 kts 70°
2026-04-20 19:26 48.68142 9.17754 1672 ft 136 kts 71°
2026-04-20 19:26 48.68399 9.19111 1478 ft 136 kts 71°
2026-04-20 19:26 48.68665 9.20505 1296 ft 136 kts 70°
2026-04-20 19:26 48.68900 9.21730 1252 ft 101 kts 74°
2026-04-20 19:27 48.69053 9.22520 1227 ft 64 kts 73°
2026-04-20 19:27 48.69139 9.22898 1219 ft 24 kts 58°
2026-04-20 19:27 48.69259 9.23091 1216 ft 26 kts 43°
2026-04-20 19:27 48.69330 9.23167 1219 ft 8 kts
2026-04-20 19:28 48.69378 9.23144 1221 ft 6 kts 333°
2026-04-20 19:28 48.69399 9.23113 1222 ft 7 kts 305°
2026-04-20 19:28 48.69404 9.23018 1225 ft 8 kts 254°
2026-04-20 19:28 48.69391 9.22950 1227 ft 5 kts 254°
2026-04-20 19:29 48.69374 9.22854 1229 ft 15 kts 254°
2026-04-20 19:29 48.69339 9.22673 1232 ft 19 kts 254°
2026-04-20 19:29 48.69307 9.22498 1247 ft 19 kts 254°
2026-04-20 19:29 48.69268 9.22300 1242 ft 19 kts 254°
2026-04-20 19:30 48.69232 9.22109 1253 ft 19 kts 254°
2026-04-20 19:30 48.69196 9.21917 1251 ft 19 kts 254°
2026-04-20 19:30 48.69160 9.21729 1259 ft 18 kts 254°
2026-04-20 19:30 48.69125 9.21544 1261 ft 18 kts 254°
2026-04-20 19:31 48.69090 9.21360 1268 ft 18 kts 253°
2026-04-20 19:31 48.69057 9.21188 1270 ft 17 kts 255°
2026-04-20 19:31 48.69026 9.21017 1272 ft 16 kts 254°
2026-04-20 19:31 48.68996 9.20860 1274 ft 14 kts 254°
2026-04-20 19:32 48.68973 9.20743 1278 ft 5 kts 253°
2026-04-20 19:32 48.68966 9.20704 1278 ft 3 kts 253°
2026-04-20 19:32 48.68941 9.20573 1281 ft 28 kts 255°
2026-04-20 19:32 48.68886 9.20286 1289 ft 28 kts 253°
2026-04-20 19:33 48.68836 9.20023 1295 ft 11 kts 247°
2026-04-20 19:33 48.68818 9.19928 1297 ft 7 kts 281°
2026-04-20 19:33 48.68849 9.19892 1300 ft 11 kts 340°
2026-04-20 19:33 48.68887 9.19802 1305 ft 10 kts 251°
2026-04-20 19:34 48.68872 9.19726 1307 ft 6 kts 254°
2026-04-20 19:34 48.68865 9.19688 1308 ft 2 kts 253°
2026-04-20 19:34 48.68862 9.19671 1308 ft 1 kts 253°
2026-04-20 19:34 48.68853 9.19628 1309 ft 4 kts 253°
2026-04-20 19:35 48.68848 9.19600 1310 ft 2 kts 253°
2026-04-20 19:35 48.68840 9.19556 1310 ft 8 kts 260°
2026-04-20 19:35 48.68863 9.19534 1312 ft 4 kts 352°
2026-04-20 19:35 48.68911 9.19515 1315 ft 4 kts 343°
2026-04-20 19:36 48.68915 9.19513 1315 ft 0 kts 343°